[[{"header":{"parameterUnit":"m.s-1","parameterCategory":1,"la1":30.2991,"la2":30.254,"lo1":-89.0895,"lo2":-89.0444,"dy":0.0017,"dx":0.0017,"nx":28,"ny":28,"refTime":"2024-10-04T09:00:00:Z","depth":0,"parameterNumber":2,"parameterNumberName":"U-component_of_WINDS"},"data":[0,0,0,0,0,0,0,0,0,0,0,0,0,0,0,0,0,0,0,0,0,0,0,0,0,0,0,0,0,0,0,0,0,0,0,0,0,0,0,0,0,0,0,0,0,0,0,0,0,0,0,0,0,0,0,0,0,0,-4.2973,-4.2974,0,-4.307,-4.3071,-4.3072,-4.2992,-4.2988,-4.2985,-4.2982,-4.3084,-4.309,-4.3096,0,0,0,0,0,0,0,0,0,0,0,0,0,-4.272,-4.2726,-4.2973,-4.2974,-4.2975,-4.307,-4.3071,-4.3073,-4.2992,-4.2988,-4.2984,-4.298,-4.3082,-4.3089,-4.3096,0,0,0,0,0,0,0,0,0,0,0,0,0,-4.2825,-4.2727,-4.2973,-4.2947,-4.2945,-4.307,-4.3071,-4.3073,-4.2993,-4.2988,-4.2983,-4.2978,-4.308,-4.3089,-4.3097,-4.3254,0,0,-4.3124,-4.3128,0,0,0,0,0,0,0,0,-4.2819,-4.2835,-4.2949,-4.2949,-4.2947,-4.3014,-4.302,-4.3134,-4.2994,-4.2975,-4.2982,-4.2976,-4.3065,-4.3075,-4.3104,-4.3259,-4.3263,-4.3125,-4.3131,-4.3134,-4.3137,0,0,0,0,0,0,0,-4.2812,-4.283,-4.3011,-4.2951,-4.295,-4.2931,-4.294,-4.3041,-4.3048,-4.2976,-4.2971,-4.2983,-4.3064,-4.3096,-4.3106,-4.3265,-4.3125,-4.3133,-4.3138,-4.3142,-4.3554,-4.356,0,0,0,0,0,0,-4.2807,-4.2825,-4.3008,-4.3014,-4.2869,-4.294,-4.295,-4.2997,-4.3046,-4.3049,-4.2987,-4.2979,-4.3083,-4.3096,-4.311,-4.3298,-4.3134,-4.3143,-4.3148,-4.3549,-4.3556,-4.3562,0,0,0,0,0,0,-4.2802,-4.2824,-4.3004,-4.2918,-4.2939,-4.2949,-4.3003,-4.3002,-4.3034,-4.3055,-4.3056,-4.3019,-4.308,-4.3097,-4.3219,-4.33,-4.3147,-4.3155,-4.3542,-4.3551,-4.3559,-4.3674,0,0,0,0,0,0,-4.2795,-4.2823,-4.2882,-4.292,-4.2944,-4.3112,-4.3008,-4.3008,-4.305,-4.304,-4.3085,-4.3087,-4.3077,-4.3206,-4.3228,-4.3309,-4.3162,-4.3535,-4.3546,-4.3556,-4.3663,-4.3686,-4.3705,0,0,0,0,0,-4.2787,-4.2911,-4.2885,-4.2908,-4.3018,-4.3116,-4.313,-4.3116,-4.3056,-4.3116,-4.3129,-4.3086,-4.3287,-4.3219,-4.3243,-4.3329,-4.353,-4.3543,-4.3555,-4.3654,-4.3681,-4.3704,0,0,0,0,0,0,-4.2883,-4.2915,-4.2887,-4.3027,-4.307,-4.3102,-4.3177,-4.3145,-4.3205,-4.3194,-4.3173,-4.3184,-4.3313,-4.3332,-4.3256,-4.3484,-4.3399,-4.3417,-4.3466,-4.3492,-4.3513,-4.3506,-4.3169,0,0,0,0,0,-4.292,-4.2996,-4.3021,-4.3142,-4.3165,-4.3168,-4.321,-4.3195,-4.3238,-4.3256,-4.3278,-4.3323,-4.3396,-4.3445,-4.3513,-4.3665,-4.3675,-4.3736,-4.3757,-4.3774,-4.379,-4.3874,-4.3902,-4.3604,-4.3603,-4.3603,0,0,-4.2998,-4.3025,-4.3075,-4.3162,-4.3193,-4.3274,-4.3183,-4.3272,-4.3332,-4.327,-4.3386,-4.3404,-4.3453,-4.3591,-4.3653,-4.3611,-4.3875,-4.379,-4.3803,-4.3811,-4.389,-4.3918,-4.3944,-4.3612,-4.3611,-4.3609,0,0,-4.3182,-4.321,-4.3315,-4.3348,-4.3396,-4.3397,-4.3422,-4.3461,-4.347,-4.3586,-4.3542,-4.3613,-4.374,-4.3777,-4.3812,-4.4012,-4.3975,-4.4035,-4.4144,-4.4226,-4.425,-4.427,-4.4344,-4.437,-4.4051,-4.4051,-4.4051,0,-4.3274,-4.3393,-4.3373,-4.3466,-4.3506,-4.3452,-4.356,-4.3593,-4.3661,-4.3691,-4.3643,-4.3802,-4.383,-4.3978,-4.4026,-4.4056,-4.4086,-4.403,-4.4248,-4.4268,-4.4287,-4.4357,-4.4385,-4.4058,-4.4057,-4.4056,-4.4056,0,-4.3504,-4.3588,-4.3667,-4.3734,-4.3783,-4.3883,-4.3879,-4.3932,-4.3912,-4.3919,-4.404,-4.4072,-4.4147,-4.4181,-4.4163,-4.4326,-4.4299,-4.425,-4.4165,-4.4323,-4.4389,-4.4415,-4.4068,-4.4066,-4.4063,-4.4062,0,0,-4.3753,-4.3808,-4.3837,-4.3868,-4.3917,-4.3982,-4.408,-4.4152,-4.4199,-4.4248,-4.4331,-4.4439,-4.4394,-4.4435,-4.442,-4.4492,-4.4651,-4.4434,-4.4435,-4.4476,-4.4836,-4.4875,-4.4906,-4.4626,-4.4631,-4.4635,-4.4833,0,-4.3941,-4.411,-4.4095,-4.4256,-4.4334,-4.4284,-4.437,-4.441,-4.442,-4.4488,-4.4498,-4.4576,-4.451,-4.4534,-4.4603,-4.4617,-4.4724,-4.4603,-4.4706,-4.4709,-4.4697,-4.494,-4.498,-4.5165,-4.4858,-4.4862,-4.4866,0,-4.4183,-4.424,-4.4409,-4.4448,-4.448,-4.4557,-4.4624,-4.4689,-4.4734,-4.4736,-4.4782,-4.4756,-4.4856,-4.4768,-4.4907,-4.4825,-4.4866,-4.488,-4.4886,-4.4897,-4.4799,-4.4959,-4.5224,-4.5252,-4.4905,-4.4902,-4.4899,0,-4.435,-4.4469,-4.4586,-4.4613,-4.4661,-4.4717,-4.474,-4.478,-4.4825,-4.4883,-4.4913,-4.4982,-4.5021,-4.5076,-4.5071,-4.5006,-4.5213,-4.5123,-4.5219,-4.522,-4.5267,-4.5264,-4.5544,-4.529,-4.5289,-4.5289,-4.5288,0,-4.4562,-4.4668,-4.4662,-4.4734,-4.4852,-4.4834,-4.4952,-4.4968,-4.5004,-4.508,-4.5041,-4.5113,-4.51,-4.5173,-4.5168,-4.5286,-4.5303,-4.5309,-4.5307,-4.5314,-4.5313,-4.5342,-4.533,-4.5296,-4.5294,-4.5293,-4.5292,0,-4.4769,-4.4769,-4.4894,-4.4929,-4.494,-4.5026,-4.5056,-4.5125,-4.5131,-4.5228,-4.5249,-4.5259,-4.5343,-4.5342,-4.5437,-4.5434,-4.5579,-4.5561,-4.5564,-4.5561,-4.5658,-4.565,-4.5967,-4.6009,-4.5726,-4.5729,-4.5731,0,-4.4906,-4.4986,-4.503,-4.5078,-4.5104,-4.5181,-4.5227,-4.5213,-4.5263,-4.5322,-4.5384,-4.5464,-4.5527,-4.5663,-4.568,-4.5753,-4.5739,-4.5845,-4.5749,-4.5754,-4.5743,-4.5739,-4.5748,-4.5864,-4.5867,-4.587,-4.5872,0,-4.515,-4.5146,-4.5213,-4.5282,-4.5338,-4.5391,-4.544,-4.5481,-4.5473,-4.5531,-4.5616,-4.5665,-4.5762,-4.5843,-4.5914,-4.5938,-4.5906,-4.5902,-4.5928,-4.5937,-4.5936,-4.594,-4.5617,-4.5895,-4.5893,-4.5891,-4.589,-4.5889,-4.5327,-4.5397,-4.5439,-4.5516,-4.5552,-4.5599,-4.5666,-4.568,-4.575,-4.5828,-4.5815,-4.5911,-4.5956,-4.6047,-4.6079,-4.6154,-4.6117,-4.6155,-4.6165,-4.6175,-4.6187,-4.5922,-4.6167,-4.6166,-4.6165,-4.6165,-4.6164,0,-4.5571,-4.5595,-4.5666,-4.5736,-4.5797,-4.5759,-4.5811,-4.5866,-4.595,-4.5994,-4.6057,-4.6156,-4.6234,-4.6257,-4.6333,-4.6389,-4.6376,-4.641,-4.6407,-4.6414,-4.6214,-4.6185,-4.6419,-4.6419,-4.6419,-4.6419,-4.6419,-4.6419,-4.5705,-4.5821,-4.5823,-4.5958,-4.5981,-4.6074,-4.6108,-4.6152,-4.6187,-4.6299,-4.6363,-4.6377,-4.6414,-4.6492,-4.6563,-4.6568,-4.6599,-4.664,-4.6639,-4.6453,-4.6427,-4.6403,-4.6375,-4.6646,-4.6646,-4.6832,-4.6834,-4.6835]},{"header":{"parameterUnit":"m.s-1","parameterCategory":1,"la1":30.2991,"la2":30.254,"lo1":-89.0895,"lo2":-89.0444,"dy":0.0017,"dx":0.0017,"nx":28,"ny":28,"refTime":"2024-10-04T09:00:00:Z","depth":0,"parameterNumber":3,"parameterNumberName":"V-component_of_WINDS"},"data":[0,0,0,0,0,0,0,0,0,0,0,0,0,0,0,0,0,0,0,0,0,0,0,0,0,0,0,0,0,0,0,0,0,0,0,0,0,0,0,0,0,0,0,0,0,0,0,0,0,0,0,0,0,0,0,0,0,0,-4.26,-4.26,0,-4.2594,-4.2594,-4.2594,-4.2473,-4.247,-4.2467,-4.2464,-4.2459,-4.2462,-4.2464,0,0,0,0,0,0,0,0,0,0,0,0,0,-4.2507,-4.2509,-4.26,-4.26,-4.26,-4.2594,-4.2594,-4.2594,-4.2474,-4.247,-4.2466,-4.2463,-4.2458,-4.2461,-4.2465,0,0,0,0,0,0,0,0,0,0,0,0,0,-4.2529,-4.251,-4.26,-4.2539,-4.2534,-4.2594,-4.2594,-4.2594,-4.2475,-4.247,-4.2465,-4.2461,-4.2457,-4.2461,-4.2465,-4.2584,0,0,-4.2478,-4.248,0,0,0,0,0,0,0,0,-4.2528,-4.2533,-4.2548,-4.2544,-4.2538,-4.253,-4.2559,-4.2591,-4.2476,-4.2497,-4.2464,-4.2459,-4.2486,-4.2488,-4.2497,-4.2583,-4.2583,-4.2478,-4.2481,-4.2482,-4.2484,0,0,0,0,0,0,0,-4.2527,-4.2532,-4.2598,-4.2549,-4.2542,-4.2512,-4.251,-4.2565,-4.2518,-4.2495,-4.2486,-4.2487,-4.2483,-4.2493,-4.2496,-4.2583,-4.2478,-4.2482,-4.2484,-4.2486,-4.2765,-4.277,0,0,0,0,0,0,-4.2534,-4.2532,-4.2598,-4.2598,-4.2521,-4.2518,-4.2515,-4.2537,-4.2517,-4.251,-4.2491,-4.2482,-4.2488,-4.2491,-4.2495,-4.2632,-4.2482,-4.2486,-4.2489,-4.276,-4.2766,-4.2772,0,0,0,0,0,0,-4.2532,-4.2541,-4.2598,-4.2562,-4.2567,-4.2524,-4.2549,-4.2539,-4.255,-4.2514,-4.2505,-4.2511,-4.2485,-4.2489,-4.2562,-4.263,-4.2488,-4.2492,-4.2755,-4.2762,-4.2769,-4.2908,0,0,0,0,0,0,-4.253,-4.2541,-4.2586,-4.2564,-4.257,-4.2666,-4.2554,-4.2543,-4.2557,-4.2545,-4.253,-4.2523,-4.2482,-4.2557,-4.2566,-4.2634,-4.2495,-4.2748,-4.2758,-4.2767,-4.2897,-4.2919,-4.2938,0,0,0,0,0,-4.2527,-4.2625,-4.2589,-4.2597,-4.2625,-4.267,-4.2673,-4.2623,-4.2563,-4.2608,-4.2584,-4.2524,-4.2621,-4.2565,-4.2575,-4.2645,-4.2744,-4.2755,-4.2766,-4.2888,-4.2915,-4.2938,0,0,0,0,0,0,-4.2657,-4.2622,-4.258,-4.2675,-4.2676,-4.265,-4.2705,-4.2654,-4.2672,-4.266,-4.2597,-4.2595,-4.2677,-4.2668,-4.2606,-4.2758,-4.2672,-4.2685,-4.2761,-4.2786,-4.2807,-4.2808,-4.2498,0,0,0,0,0,-4.2696,-4.2736,-4.2703,-4.2789,-4.2792,-4.2749,-4.2766,-4.2727,-4.2727,-4.2727,-4.2709,-4.2711,-4.2741,-4.2763,-4.2789,-4.2895,-4.289,-4.2947,-4.2968,-4.2985,-4.2998,-4.3052,-4.3077,-4.2808,-4.2808,-4.2808,0,0,-4.2779,-4.2764,-4.2793,-4.2815,-4.2812,-4.2854,-4.275,-4.2799,-4.283,-4.2734,-4.2802,-4.2789,-4.2786,-4.2876,-4.2914,-4.2871,-4.3071,-4.2999,-4.3013,-4.3016,-4.3066,-4.3092,-4.3115,-4.2816,-4.2815,-4.2813,0,0,-4.295,-4.2943,-4.3014,-4.3013,-4.3009,-4.2979,-4.2996,-4.2977,-4.2964,-4.3031,-4.2959,-4.2995,-4.305,-4.3051,-4.3058,-4.3229,-4.3174,-4.3239,-4.3347,-4.3401,-4.3422,-4.3441,-4.3502,-4.3524,-4.3252,-4.3252,-4.3252,0,-4.3053,-4.3114,-4.3057,-4.3111,-4.3123,-4.3037,-4.3108,-4.311,-4.3115,-4.3125,-4.3075,-4.3141,-4.3134,-4.3222,-4.3263,-4.3272,-4.329,-4.3241,-4.3423,-4.3441,-4.3458,-4.3516,-4.3539,-4.326,-4.3259,-4.3258,-4.3258,0,-4.3241,-4.3284,-4.3342,-4.3348,-4.3366,-4.3429,-4.3381,-4.3406,-4.3365,-4.3341,-4.3409,-4.3397,-4.3419,-4.3437,-4.3398,-4.352,-4.3492,-4.3434,-4.3347,-4.3493,-4.3546,-4.3567,-4.3272,-4.3269,-4.3266,-4.3264,0,0,-4.3496,-4.3469,-4.3491,-4.3493,-4.3481,-4.3513,-4.3571,-4.3592,-4.3615,-4.3621,-4.3668,-4.3716,-4.3661,-4.367,-4.363,-4.3678,-4.3814,-4.3613,-4.3612,-4.3652,-4.3947,-4.3992,-4.4019,-4.3776,-4.378,-4.3783,-4.3948,0,-4.3662,-4.376,-4.371,-4.3814,-4.3853,-4.3771,-4.3822,-4.382,-4.3798,-4.3828,-4.3803,-4.3838,-4.3764,-4.3769,-4.3812,-4.3788,-4.3872,-4.3775,-4.382,-4.3823,-4.3825,-4.4046,-4.4094,-4.425,-4.3968,-4.3972,-4.3974,0,-4.387,-4.3884,-4.3992,-4.3972,-4.3986,-4.4033,-4.4047,-4.4077,-4.4073,-4.4053,-4.4063,-4.4011,-4.4067,-4.3979,-4.4055,-4.399,-4.4005,-4.3996,-4.4001,-4.4004,-4.3908,-4.4057,-4.4298,-4.4323,-4.4006,-4.4004,-4.4001,0,-4.4046,-4.4091,-4.4161,-4.4165,-4.4144,-4.4178,-4.4171,-4.4162,-4.4178,-4.419,-4.42,-4.4219,-4.423,-4.4247,-4.4202,-4.4142,-4.4284,-4.4192,-4.427,-4.4271,-4.4304,-4.4303,-4.4553,-4.4313,-4.4312,-4.4312,-4.4311,0,-4.4237,-4.4307,-4.424,-4.4284,-4.4359,-4.43,-4.4376,-4.436,-4.4353,-4.4391,-4.4321,-4.4359,-4.4297,-4.4329,-4.4294,-4.4362,-4.4367,-4.4354,-4.4344,-4.4361,-4.4363,-4.4371,-4.4359,-4.4318,-4.4317,-4.4315,-4.4314,0,-4.4447,-4.4405,-4.4477,-4.445,-4.4444,-4.4501,-4.4478,-4.4517,-4.4489,-4.454,-4.4548,-4.4505,-4.4539,-4.4495,-4.4525,-4.4501,-4.4594,-4.4568,-4.4596,-4.4589,-4.4669,-4.4662,-4.4934,-4.4967,-4.4704,-4.4707,-4.4709,0,-4.4573,-4.4624,-4.4602,-4.4623,-4.4619,-4.4654,-4.4669,-4.4612,-4.4631,-4.463,-4.4669,-4.4697,-4.4716,-4.4774,-4.4745,-4.4768,-4.4742,-4.4835,-4.4745,-4.476,-4.4744,-4.4742,-4.4747,-4.4854,-4.4857,-4.486,-4.4862,0,-4.48,-4.4776,-4.4801,-4.4818,-4.4838,-4.4849,-4.4855,-4.4876,-4.4816,-4.4841,-4.4874,-4.4889,-4.4918,-4.4947,-4.4961,-4.4953,-4.4899,-4.489,-4.4909,-4.4928,-4.4943,-4.4937,-4.4648,-4.4885,-4.4883,-4.4881,-4.488,-4.4879,-4.4972,-4.5014,-4.5005,-4.5034,-4.5032,-4.5039,-4.5074,-4.505,-4.5077,-4.5096,-4.5061,-4.5103,-4.5097,-4.511,-4.5109,-4.5141,-4.5101,-4.5128,-4.5136,-4.5144,-4.5156,-4.4937,-4.5143,-4.5143,-4.5142,-4.5141,-4.5141,0,-4.5197,-4.5186,-4.5214,-4.5223,-4.5246,-4.5191,-4.5194,-4.5217,-4.5255,-4.5253,-4.5273,-4.5311,-4.5338,-4.5312,-4.5333,-4.5364,-4.534,-4.5372,-4.537,-4.5369,-4.5191,-4.5172,-4.5392,-4.5392,-4.5392,-4.5392,-4.5392,-4.5392,-4.5316,-4.5384,-4.5359,-4.5425,-4.5413,-4.5454,-4.546,-4.5466,-4.5464,-4.551,-4.5532,-4.5513,-4.5502,-4.5522,-4.5544,-4.5536,-4.5548,-4.5589,-4.5572,-4.5406,-4.5382,-4.5358,-4.5341,-4.5592,-4.5592,-4.5748,-4.575,-4.5751]}]]